Simultaneous Nadir Overpasses (SNOs) Predictions

Prediction of SNOs between METOP-B and NOAA-19 Satellite Orbit:

Table of predicted SNOs for the next 14.0 days since TLE Epoch: 1/18/2019
Index Date (METOP-B) Time (METOP-B) Lat,Lon (METOP-B) SZA (METOP-B ) Date (NOAA-19) Time (NOAA-19) Lat,Lon (NOAA-19) SZA (NOAA-19 ) Distance(km) Time Diff (sec)
1 01/21/2019 18:51:04 78.93, -89.30 98.88 01/21/2019 18:49:51 78.96, -89.23 98.91 3.69 73
2 01/21/2019 19:41:45 -78.95, 78.20 81.10 01/21/2019 19:40:52 -78.96, 78.03 81.11 3.67 53
3 01/21/2019 20:32:25 78.95,-114.49 98.90 01/21/2019 20:31:51 78.93,-114.49 98.87 2.71 34
4 01/21/2019 21:23:07 -78.94, 52.77 81.13 01/21/2019 21:22:52 -78.92, 52.77 81.15 1.84 15
5 01/21/2019 22:13:47 78.94,-139.92 98.86 01/21/2019 22:13:52 78.93,-140.01 98.85 2.16 5
6 01/21/2019 23:04:29 -78.93, 27.34 81.16 01/21/2019 23:04:53 -78.93, 27.26 81.16 1.70 24
7 01/21/2019 23:55:09 78.93,-165.35 98.83 01/21/2019 23:55:52 78.90,-165.26 98.81 3.57 43
8 01/22/2019 00:45:51 -78.92, 1.91 81.19 01/22/2019 00:46:53 -78.89, 2.01 81.20 3.11 62




NCC Satellite Simultaneous Nadir Overpasses (SNOs) Prediction Service
